This demonstration page uses our WeatherBlox Daily Observations layout. Learn more.

Left ArrowRight Arrow

44.8408, -93.29828

Hourly Observations for March 23, 2022

Temp ( °F °C ) Dew Point ( °F °C ) Humidity (%) Winds ( mph kmh ) Pressure ( in mb ) Visibility ( mi km ) Precip ( " mm )
12:53 am 00:53 Cloudy 35 1.7 33 0.6 93 93 NNE 14 22 29.75 1008 10 16 0.00 0.00
1:53 am 01:53 Cloudy 35 1.7 32 0 89 89 NNE 16 26 29.74 1007 10 16 0.00 0.00
2:53 am 02:53 Cloudy with Mist and Fog 34 1.1 32 0 92 92 N 14 22 29.73 1007 6 10 0.00 0.00
3:53 am 03:53 Cloudy with Light Rain/Snow 33 0.6 31 -0.6 92 92 N 15 24 29.71 1006 5 8 0.03 0.76
4:53 am 04:53 Cloudy with Light Rain/Snow 32 0 31 -0.6 96 96 N 15 24 29.70 1006 4 6 0.01 0.25
5:31 am 05:31 Cloudy 33 0.6 31 -0.6 92 92 N 15 24 29.72 1007 10 16 0.01 0.25
5:42 am 05:42 Cloudy with Light Rain/Snow 33 0.6 31 -0.6 92 92 N 17 28 29.72 1007 8 13 0.01 0.25
5:53 am 05:53 Cloudy with Light Rain/Snow 33 0.6 31 -0.6 92 92 N 15 24 29.70 1006 5 8 0.01 0.25
6:09 am 06:09 Cloudy with Light Snow 33 0.6 31 -0.6 92 92 N 14 22 29.72 1007 3 5 0.00 0.00
6:42 am 06:42 Cloudy with Light Snow 32 0 30 -1.1 92 92 N 14 22 29.73 1007 4 6 0.01 0.25
6:53 am 06:53 Cloudy with Light Snow 32 0 31 -0.6 96 96 N 14 22 29.71 1006 2 3 0.01 0.25
7:07 am 07:07 Cloudy with Light Snow 32 0 31 -0.6 96 96 N 16 26 29.74 1007 1 2 0.01 0.25
7:17 am 07:17 Cloudy with Light Snow 32 0 30 -1.1 92 92 N 14 22 29.74 1007 2 2 0.01 0.25
7:27 am 07:27 Cloudy with Light Snow 32 0 31 -0.6 96 96 N 16 26 29.74 1007 2 3 0.01 0.25
7:44 am 07:44 Cloudy with Light Snow 32 0 31 -0.6 96 96 N 16 26 29.75 1007 2 2 0.02 0.51
7:53 am 07:53 Cloudy with Light Snow 32 0 31 -0.6 96 96 N 14 22 29.72 1007 1 2 0.02 0.51
8:14 am 08:14 Cloudy with Light Snow 32 0 31 -0.6 96 96 N 15 24 29.74 1007 2 3 0.00 0.00
8:42 am 08:42 Cloudy with Light Snow 32 0 31 -0.6 96 96 N 15 24 29.75 1007 4 6 0.00 0.00
8:53 am 08:53 Cloudy with Light Snow 32 0 31 -0.6 96 96 N 15 24 29.72 1007 4 6 0.01 0.25
9:14 am 09:14 Cloudy with Light Snow 33 0.6 31 -0.6 92 92 N 17 28 29.74 1007 7 11 0.00 0.00
9:41 am 09:41 Cloudy with Light Wintry Mix 33 0.6 31 -0.6 92 92 N 18 30 29.73 1007 7 11 0.00 0.00
9:53 am 09:53 Cloudy with Drizzle 33 0.6 31 -0.6 92 92 N 18 30 29.72 1006 6 10 0.00 0.00
10:23 am 10:23 Cloudy with Drizzle 33 0.6 30 -1.1 89 89 N 16 26 29.74 1007 9 14 0.00 0.00
10:53 am 10:53 Cloudy 33 0.6 30 -1.1 89 89 N 18 30 29.73 1007 10 16 0.00 0.00
11:53 am 11:53 Cloudy 34 1.1 30 -1.1 85 85 N 18 30 29.73 1007 10 16 0.00 0.00
12:53 pm 12:53 Cloudy 34 1.1 30 -1.1 85 85 N 21 33 29.73 1007 10 16 0.00 0.00
1:53 pm 13:53 Cloudy 35 1.7 30 -1.1 82 82 N 15 24 29.73 1007 10 16 0.00 0.00
2:07 pm 14:07 Cloudy with Light Snow 35 1.7 30 -1.1 82 82 N 16 26 29.74 1007 10 16 0.00 0.00
2:35 pm 14:35 Windy with Snow Likely 35 1.7 30 -1.1 82 82 N 20 31 29.74 1007 9 14 0.00 0.00
2:53 pm 14:53 Cloudy with Light Snow 35 1.7 30 -1.1 82 82 N 15 24 29.72 1006 9 14 0.00 0.00
3:18 pm 15:18 Cloudy with Light Snow 35 1.7 30 -1.1 82 82 N 17 28 29.74 1007 9 14 0.00 0.00
3:53 pm 15:53 Cloudy with Light Snow 36 2.2 31 -0.6 82 82 N 15 24 29.72 1007 9 14 0.00 0.00
4:53 pm 16:53 Windy with Snow Likely 36 2.2 30 -1.1 79 79 N 21 33 29.73 1007 9 14 0.00 0.00
5:53 pm 17:53 Cloudy 36 2.2 28 -2.2 73 73 N 17 28 29.73 1007 9 14 0.00 0.00
6:14 pm 18:14 Cloudy 36 2.2 28 -2.2 73 73 N 20 31 29.75 1007 10 16 0.00 0.00
6:53 pm 18:53 Cloudy 36 2.2 28 -2.2 73 73 N 17 28 29.75 1007 10 16 0.00 0.00
7:53 pm 19:53 Cloudy 35 1.7 27 -2.8 72 72 N 21 33 29.77 1008 10 16 0.00 0.00
8:53 pm 20:53 Cloudy 34 1.1 27 -2.8 76 76 N 14 22 29.78 1008 10 16 0.00 0.00
9:53 pm 21:53 Cloudy 34 1.1 27 -2.8 76 76 N 14 22 29.78 1009 10 16 0.00 0.00
10:41 pm 22:41 Cloudy 34 1.1 27 -2.8 76 76 N 16 26 29.79 1009 10 16 0.00 0.00
10:53 pm 22:53 Cloudy 34 1.1 27 -2.8 76 76 N 16 26 29.78 1008 10 16 0.00 0.00
11:37 pm 23:37 Cloudy 34 1.1 27 -2.8 76 76 N 16 26 29.79 1009 10 16 0.00 0.00
11:53 pm 23:53 Cloudy 33 0.6 28 -2.2 82 82 N 14 22 29.78 1008 10 16 0.00 0.00

Powered by AerisWeather